Year,Month,Day,Hour,Minute,Value (Times are PST for temperature in C)
2020,06,01,00,00,9.20
2020,06,01,00,01,9.20
2020,06,01,00,02,9.20
2020,06,01,00,03,9.20
2020,06,01,00,04,9.10
2020,06,01,00,05,9.10
2020,06,01,00,06,9.10
2020,06,01,00,07,9.00
2020,06,01,00,08,9.00
2020,06,01,00,09,8.90
2020,06,01,00,10,8.90
2020,06,01,00,11,8.90
2020,06,01,00,12,8.90
2020,06,01,00,13,8.90
2020,06,01,00,14,8.90
2020,06,01,00,15,8.90
2020,06,01,00,16,8.90
2020,06,01,00,17,8.90
2020,06,01,00,18,8.90
2020,06,01,00,19,8.90
2020,06,01,00,20,8.90
2020,06,01,00,21,8.90
2020,06,01,00,22,8.90
2020,06,01,00,23,8.80
2020,06,01,00,24,8.80
2020,06,01,00,25,8.80
2020,06,01,00,26,8.80
2020,06,01,00,27,8.80
2020,06,01,00,28,8.80
2020,06,01,00,29,8.80
2020,06,01,00,30,8.70
2020,06,01,00,31,8.70
2020,06,01,00,32,8.70
2020,06,01,00,33,8.70
2020,06,01,00,34,8.70
2020,06,01,00,35,8.70
2020,06,01,00,36,8.70
2020,06,01,00,37,8.70
2020,06,01,00,38,8.70
2020,06,01,00,39,8.70
2020,06,01,00,40,8.70
2020,06,01,00,41,8.70
2020,06,01,00,42,8.60
2020,06,01,00,43,8.60
2020,06,01,00,44,8.60
2020,06,01,00,45,8.60
2020,06,01,00,46,8.60
2020,06,01,00,47,8.60
2020,06,01,00,48,8.60
2020,06,01,00,49,8.60
2020,06,01,00,50,8.60
2020,06,01,00,51,8.60
2020,06,01,00,52,8.60
2020,06,01,00,53,8.50
2020,06,01,00,54,8.50
2020,06,01,00,55,8.50
2020,06,01,00,56,8.40
2020,06,01,00,57,8.40
2020,06,01,00,58,8.40
2020,06,01,00,59,8.40
2020,06,01,01,00,8.40
2020,06,01,01,01,8.40
2020,06,01,01,02,8.40
2020,06,01,01,03,8.40
2020,06,01,01,04,8.40
2020,06,01,01,05,8.40
2020,06,01,01,06,8.40
2020,06,01,01,07,8.40
2020,06,01,01,08,8.40
2020,06,01,01,09,8.30
2020,06,01,01,10,8.30
2020,06,01,01,11,8.40
2020,06,01,01,12,8.40
2020,06,01,01,13,8.40
2020,06,01,01,14,8.40
2020,06,01,01,15,8.50
2020,06,01,01,16,8.50
2020,06,01,01,17,8.60
2020,06,01,01,18,8.70
2020,06,01,01,19,8.80
2020,06,01,01,20,8.90
2020,06,01,01,21,9.00
2020,06,01,01,22,9.10
2020,06,01,01,23,9.20
2020,06,01,01,24,9.20
2020,06,01,01,25,9.30
2020,06,01,01,26,9.30
2020,06,01,01,27,9.30
2020,06,01,01,28,9.40
2020,06,01,01,29,9.40
2020,06,01,01,30,9.50
2020,06,01,01,31,9.50
2020,06,01,01,32,9.50
2020,06,01,01,33,9.50
2020,06,01,01,34,9.60
2020,06,01,01,35,9.60
2020,06,01,01,36,9.60
2020,06,01,01,37,9.60
2020,06,01,01,38,9.60
2020,06,01,01,39,9.60
2020,06,01,01,40,9.60
2020,06,01,01,41,9.60
2020,06,01,01,42,9.60
2020,06,01,01,43,9.60
2020,06,01,01,44,9.60
2020,06,01,01,45,9.60
2020,06,01,01,46,9.60
2020,06,01,01,47,9.70
2020,06,01,01,48,9.70
2020,06,01,01,49,9.70
2020,06,01,01,50,9.70
2020,06,01,01,51,9.70
2020,06,01,01,52,9.70
2020,06,01,01,53,9.60
2020,06,01,01,54,9.70
2020,06,01,01,55,9.70
2020,06,01,01,56,9.70
2020,06,01,01,57,9.70
2020,06,01,01,58,9.70
2020,06,01,01,59,9.70
2020,06,01,02,00,9.70
2020,06,01,02,01,9.80
2020,06,01,02,02,9.80
2020,06,01,02,03,9.80
2020,06,01,02,04,9.80
2020,06,01,02,05,9.70
2020,06,01,02,06,9.70
2020,06,01,02,07,9.70
2020,06,01,02,08,9.60
2020,06,01,02,09,9.50
2020,06,01,02,10,9.40
2020,06,01,02,11,9.30
2020,06,01,02,12,9.20
2020,06,01,02,13,9.10
2020,06,01,02,14,9.00
2020,06,01,02,15,8.90
2020,06,01,02,16,8.70
2020,06,01,02,17,8.60
2020,06,01,02,18,8.50
2020,06,01,02,19,8.40
2020,06,01,02,20,8.40
2020,06,01,02,21,8.30
2020,06,01,02,22,8.20
2020,06,01,02,23,8.20
2020,06,01,02,24,8.20
2020,06,01,02,25,8.10
2020,06,01,02,26,8.10
2020,06,01,02,27,8.10
2020,06,01,02,28,8.00
2020,06,01,02,29,8.00
2020,06,01,02,30,8.00
2020,06,01,02,31,7.90
2020,06,01,02,32,7.90
2020,06,01,02,33,7.90
2020,06,01,02,34,7.80
2020,06,01,02,35,7.80
2020,06,01,02,36,7.80
2020,06,01,02,37,7.80
2020,06,01,02,38,7.80
2020,06,01,02,39,7.80
2020,06,01,02,40,7.80
2020,06,01,02,41,7.80
2020,06,01,02,42,7.80
2020,06,01,02,43,7.80
2020,06,01,02,44,7.80
2020,06,01,02,45,7.80
2020,06,01,02,46,7.80
2020,06,01,02,47,7.80
2020,06,01,02,48,7.80
2020,06,01,02,49,7.80
2020,06,01,02,50,7.80
2020,06,01,02,51,7.80
2020,06,01,02,52,7.80
2020,06,01,02,53,7.80
2020,06,01,02,54,7.80
2020,06,01,02,55,7.80
2020,06,01,02,56,7.80
2020,06,01,02,57,7.90
2020,06,01,02,58,7.90
2020,06,01,02,59,7.90
2020,06,01,03,00,8.00
2020,06,01,03,01,8.00
2020,06,01,03,02,8.10
2020,06,01,03,03,8.10
2020,06,01,03,04,8.20
2020,06,01,03,05,8.20
2020,06,01,03,06,8.20
2020,06,01,03,07,8.30
2020,06,01,03,08,8.30
2020,06,01,03,09,8.40
2020,06,01,03,10,8.40
2020,06,01,03,11,8.40
2020,06,01,03,12,8.40
2020,06,01,03,13,8.40
2020,06,01,03,14,8.50
2020,06,01,03,15,8.50
2020,06,01,03,16,8.50
2020,06,01,03,17,8.50
2020,06,01,03,18,8.40
2020,06,01,03,19,8.40
2020,06,01,03,20,8.30
2020,06,01,03,21,8.30
2020,06,01,03,22,8.20
2020,06,01,03,23,8.10
2020,06,01,03,24,8.00
2020,06,01,03,25,7.90
2020,06,01,03,26,7.80
2020,06,01,03,27,7.70
2020,06,01,03,28,7.70
2020,06,01,03,29,7.60
2020,06,01,03,30,7.60
2020,06,01,03,31,7.50
2020,06,01,03,32,7.40
2020,06,01,03,33,7.40
2020,06,01,03,34,7.30
2020,06,01,03,35,7.30
2020,06,01,03,36,7.20
2020,06,01,03,37,7.20
2020,06,01,03,38,7.20
2020,06,01,03,39,7.10
2020,06,01,03,40,7.10
2020,06,01,03,41,7.10
2020,06,01,03,42,7.10
2020,06,01,03,43,7.00
2020,06,01,03,44,7.00
2020,06,01,03,45,7.00
2020,06,01,03,46,6.90
2020,06,01,03,47,6.90
2020,06,01,03,48,6.90
2020,06,01,03,49,6.90
2020,06,01,03,50,6.90
2020,06,01,03,51,6.90
2020,06,01,03,52,6.80
2020,06,01,03,53,6.80
2020,06,01,03,54,6.80
2020,06,01,03,55,6.80
2020,06,01,03,56,6.80
2020,06,01,03,57,6.70
2020,06,01,03,58,6.70
2020,06,01,03,59,6.70
2020,06,01,04,00,6.70
2020,06,01,04,01,6.70
2020,06,01,04,02,6.70
2020,06,01,04,03,6.80
2020,06,01,04,04,6.80
2020,06,01,04,05,6.80
2020,06,01,04,06,6.80
2020,06,01,04,07,6.80
2020,06,01,04,08,6.80
2020,06,01,04,09,6.80
2020,06,01,04,10,6.80
2020,06,01,04,11,6.80
2020,06,01,04,12,6.70
2020,06,01,04,13,6.70
2020,06,01,04,14,6.70
2020,06,01,04,15,6.70
2020,06,01,04,16,6.70
2020,06,01,04,17,6.70
2020,06,01,04,18,6.70
2020,06,01,04,19,6.70
2020,06,01,04,20,6.70
2020,06,01,04,21,6.70
2020,06,01,04,22,6.70
2020,06,01,04,23,6.70
2020,06,01,04,24,6.70
2020,06,01,04,25,6.70
2020,06,01,04,26,6.70
2020,06,01,04,27,6.80
2020,06,01,04,28,6.80
2020,06,01,04,29,6.80
2020,06,01,04,30,6.80
2020,06,01,04,31,6.80
2020,06,01,04,32,6.80
2020,06,01,04,33,6.80
2020,06,01,04,34,6.80
2020,06,01,04,35,6.80
2020,06,01,04,36,6.80
2020,06,01,04,37,6.80
2020,06,01,04,38,6.80
2020,06,01,04,39,6.80
2020,06,01,04,40,6.80
2020,06,01,04,41,6.90
2020,06,01,04,42,6.90
2020,06,01,04,43,6.90
2020,06,01,04,44,6.90
2020,06,01,04,45,6.90
2020,06,01,04,46,6.90
2020,06,01,04,47,6.90
2020,06,01,04,48,6.90
2020,06,01,04,49,6.90
2020,06,01,04,50,6.90
2020,06,01,04,51,6.80
2020,06,01,04,52,6.80
2020,06,01,04,53,6.80
2020,06,01,04,54,6.80
2020,06,01,04,55,6.80
2020,06,01,04,56,6.80
2020,06,01,04,57,6.80
2020,06,01,04,58,6.80
2020,06,01,04,59,6.80
2020,06,01,05,00,6.80
2020,06,01,05,01,6.80
2020,06,01,05,02,6.80
2020,06,01,05,03,6.80
2020,06,01,05,04,6.70
2020,06,01,05,05,6.70
2020,06,01,05,06,6.70
2020,06,01,05,07,6.70
2020,06,01,05,08,6.80
2020,06,01,05,09,6.80
2020,06,01,05,10,6.80
2020,06,01,05,11,6.80
2020,06,01,05,12,6.80
2020,06,01,05,13,6.70
2020,06,01,05,14,6.70
2020,06,01,05,15,6.70
2020,06,01,05,16,6.60
2020,06,01,05,17,6.60
2020,06,01,05,18,6.60
2020,06,01,05,19,6.50
2020,06,01,05,20,6.50
2020,06,01,05,21,6.50
2020,06,01,05,22,6.50
2020,06,01,05,23,6.40
2020,06,01,05,24,6.40
2020,06,01,05,25,6.40
2020,06,01,05,26,6.30
2020,06,01,05,27,6.30
2020,06,01,05,28,6.30
2020,06,01,05,29,6.30
2020,06,01,05,30,6.30
2020,06,01,05,31,6.30
2020,06,01,05,32,6.30
2020,06,01,05,33,6.30
2020,06,01,05,34,6.30
2020,06,01,05,35,6.30
2020,06,01,05,36,6.30
2020,06,01,05,37,6.30
2020,06,01,05,38,6.30
2020,06,01,05,39,6.30
2020,06,01,05,40,6.30
2020,06,01,05,41,6.30
2020,06,01,05,42,6.40
2020,06,01,05,43,6.40
2020,06,01,05,44,6.40
2020,06,01,05,45,6.40
2020,06,01,05,46,6.40
2020,06,01,05,47,6.40
2020,06,01,05,48,6.40
2020,06,01,05,49,6.40
2020,06,01,05,50,6.40
2020,06,01,05,51,6.40
2020,06,01,05,52,6.40
2020,06,01,05,53,6.40
2020,06,01,05,54,6.40
2020,06,01,05,55,6.40
2020,06,01,05,56,6.40
2020,06,01,05,57,6.40
2020,06,01,05,58,6.40
2020,06,01,05,59,6.40
2020,06,01,06,00,6.40
2020,06,01,06,01,6.30
2020,06,01,06,02,6.40
2020,06,01,06,03,6.40
2020,06,01,06,04,6.40
2020,06,01,06,05,6.40
2020,06,01,06,06,6.40
2020,06,01,06,07,6.40
2020,06,01,06,08,6.40
2020,06,01,06,09,6.40
2020,06,01,06,10,6.40
2020,06,01,06,11,6.40
2020,06,01,06,12,6.40
2020,06,01,06,13,6.40
2020,06,01,06,14,6.50
2020,06,01,06,15,6.60
2020,06,01,06,16,6.60
2020,06,01,06,17,6.70
2020,06,01,06,18,6.70
2020,06,01,06,19,6.80
2020,06,01,06,20,6.80
2020,06,01,06,21,6.90
2020,06,01,06,22,6.90
2020,06,01,06,23,7.00
2020,06,01,06,24,7.00
2020,06,01,06,25,7.10
2020,06,01,06,26,7.20
2020,06,01,06,27,7.20
2020,06,01,06,28,7.30
2020,06,01,06,29,7.30
2020,06,01,06,30,7.40
2020,06,01,06,31,7.40
2020,06,01,06,32,7.50
2020,06,01,06,33,7.60
2020,06,01,06,34,7.60
2020,06,01,06,35,7.70
2020,06,01,06,36,7.70
2020,06,01,06,37,7.70
2020,06,01,06,38,7.80
2020,06,01,06,39,7.80
2020,06,01,06,40,7.90
2020,06,01,06,41,8.00
2020,06,01,06,42,8.10
2020,06,01,06,43,8.20
2020,06,01,06,44,8.20
2020,06,01,06,45,8.30
2020,06,01,06,46,8.30
2020,06,01,06,47,8.40
2020,06,01,06,48,8.50
2020,06,01,06,49,8.60
2020,06,01,06,50,8.60
2020,06,01,06,51,8.70
2020,06,01,06,52,8.80
2020,06,01,06,53,8.80
2020,06,01,06,54,8.90
2020,06,01,06,55,9.00
2020,06,01,06,56,9.10
2020,06,01,06,57,9.10
2020,06,01,06,58,9.20
2020,06,01,06,59,9.30
2020,06,01,07,00,9.40
2020,06,01,07,01,9.50
2020,06,01,07,02,9.60
2020,06,01,07,03,9.70
2020,06,01,07,04,9.70
2020,06,01,07,05,9.80
2020,06,01,07,06,9.90
2020,06,01,07,07,10.00
2020,06,01,07,08,10.10
2020,06,01,07,09,10.20
2020,06,01,07,10,10.30
2020,06,01,07,11,10.40
2020,06,01,07,12,10.50
2020,06,01,07,13,10.70
2020,06,01,07,14,10.80
2020,06,01,07,15,11.00
2020,06,01,07,16,11.10
2020,06,01,07,17,11.20
2020,06,01,07,18,11.30
2020,06,01,07,19,11.40
2020,06,01,07,20,11.50
2020,06,01,07,21,11.60
2020,06,01,07,22,11.70
2020,06,01,07,23,11.80
2020,06,01,07,24,11.90
2020,06,01,07,25,12.00
2020,06,01,07,26,12.10
2020,06,01,07,27,12.20
2020,06,01,07,28,12.20
2020,06,01,07,29,12.30
2020,06,01,07,30,12.30
2020,06,01,07,31,12.40
2020,06,01,07,32,12.40
2020,06,01,07,33,12.50
2020,06,01,07,34,12.50
2020,06,01,07,35,12.60
2020,06,01,07,36,12.70
2020,06,01,07,37,12.80
2020,06,01,07,38,12.80
2020,06,01,07,39,12.90
2020,06,01,07,40,12.90
2020,06,01,07,41,12.90
2020,06,01,07,42,12.80
2020,06,01,07,43,12.80
2020,06,01,07,44,12.80
2020,06,01,07,45,12.80
2020,06,01,07,46,12.80
2020,06,01,07,47,12.90
2020,06,01,07,48,13.00
2020,06,01,07,49,13.00
2020,06,01,07,50,13.10
2020,06,01,07,51,13.10
2020,06,01,07,52,13.10
2020,06,01,07,53,13.10
2020,06,01,07,54,13.00
2020,06,01,07,55,13.00
2020,06,01,07,56,12.90
2020,06,01,07,57,12.90
2020,06,01,07,58,12.90
2020,06,01,07,59,12.90
2020,06,01,08,00,13.00
2020,06,01,08,01,13.10
2020,06,01,08,02,13.10
2020,06,01,08,03,13.20
2020,06,01,08,04,13.30
2020,06,01,08,05,13.40
2020,06,01,08,06,13.50
2020,06,01,08,07,13.60
2020,06,01,08,08,13.70
2020,06,01,08,09,13.70
2020,06,01,08,10,13.60
2020,06,01,08,11,13.60
2020,06,01,08,12,13.60
2020,06,01,08,13,13.60
2020,06,01,08,14,13.60
2020,06,01,08,15,13.60
2020,06,01,08,16,13.60
2020,06,01,08,17,13.60
2020,06,01,08,18,13.60
2020,06,01,08,19,13.60
2020,06,01,08,20,13.60
2020,06,01,08,21,13.50
2020,06,01,08,22,13.50
2020,06,01,08,23,13.50
2020,06,01,08,24,13.40
2020,06,01,08,25,13.40
2020,06,01,08,26,13.40
2020,06,01,08,27,13.40
2020,06,01,08,28,13.50
2020,06,01,08,29,13.60
2020,06,01,08,30,13.70
2020,06,01,08,31,13.70
2020,06,01,08,32,13.70
2020,06,01,08,33,13.70
2020,06,01,08,34,13.60
2020,06,01,08,35,13.60
2020,06,01,08,36,13.60
2020,06,01,08,37,13.60
2020,06,01,08,38,13.60
2020,06,01,08,39,13.60
2020,06,01,08,40,13.60
2020,06,01,08,41,13.60
2020,06,01,08,42,13.60
2020,06,01,08,43,13.60
2020,06,01,08,44,13.60
2020,06,01,08,45,13.60
2020,06,01,08,46,13.60
2020,06,01,08,47,13.60
2020,06,01,08,48,13.70
2020,06,01,08,49,13.80
2020,06,01,08,50,13.80
2020,06,01,08,51,13.90
2020,06,01,08,52,14.00
2020,06,01,08,53,14.10
2020,06,01,08,54,14.20
2020,06,01,08,55,14.20
2020,06,01,08,56,14.20
2020,06,01,08,57,14.20
2020,06,01,08,58,14.30
2020,06,01,08,59,14.30
2020,06,01,09,00,14.40
2020,06,01,09,01,14.40
2020,06,01,09,02,14.40
2020,06,01,09,03,14.40
2020,06,01,09,04,14.40
2020,06,01,09,05,14.40
2020,06,01,09,06,14.40
2020,06,01,09,07,14.40
2020,06,01,09,08,14.30
2020,06,01,09,09,14.30
2020,06,01,09,10,14.30
2020,06,01,09,11,14.40
2020,06,01,09,12,14.40
2020,06,01,09,13,14.40
2020,06,01,09,14,14.50
2020,06,01,09,15,14.50
2020,06,01,09,16,14.60
2020,06,01,09,17,14.60
2020,06,01,09,18,14.50
2020,06,01,09,19,14.50
2020,06,01,09,20,14.50
2020,06,01,09,21,14.60
2020,06,01,09,22,14.60
2020,06,01,09,23,14.60
2020,06,01,09,24,14.60
2020,06,01,09,25,14.50
2020,06,01,09,26,14.50
2020,06,01,09,27,14.50
2020,06,01,09,28,14.50
2020,06,01,09,29,14.40
2020,06,01,09,30,14.40
2020,06,01,09,31,14.40
2020,06,01,09,32,14.40
2020,06,01,09,33,14.40
2020,06,01,09,34,14.40
2020,06,01,09,35,14.40
2020,06,01,09,36,14.50
2020,06,01,09,37,14.60
2020,06,01,09,38,14.60
2020,06,01,09,39,14.60
2020,06,01,09,40,14.70
2020,06,01,09,41,14.70
2020,06,01,09,42,14.80
2020,06,01,09,43,14.80
2020,06,01,09,44,14.90
2020,06,01,09,45,14.90
2020,06,01,09,46,14.90
2020,06,01,09,47,15.00
2020,06,01,09,48,15.00
2020,06,01,09,49,15.00
2020,06,01,09,50,15.10
2020,06,01,09,51,15.10
2020,06,01,09,52,15.10
2020,06,01,09,53,15.00
2020,06,01,09,54,15.00
2020,06,01,09,55,14.90
2020,06,01,09,56,14.90
2020,06,01,09,57,14.90
2020,06,01,09,58,14.80
2020,06,01,09,59,14.80
2020,06,01,10,00,14.80
2020,06,01,10,01,14.80
2020,06,01,10,02,14.80
2020,06,01,10,03,14.80
2020,06,01,10,04,14.80
2020,06,01,10,05,14.80
2020,06,01,10,06,14.80
2020,06,01,10,07,14.80
2020,06,01,10,08,14.80
2020,06,01,10,09,14.80
2020,06,01,10,10,14.80
2020,06,01,10,11,14.90
2020,06,01,10,12,15.00
2020,06,01,10,13,15.10
2020,06,01,10,14,15.10
2020,06,01,10,15,15.10
2020,06,01,10,16,15.10
2020,06,01,10,17,15.10
2020,06,01,10,18,15.20
2020,06,01,10,19,15.30
2020,06,01,10,20,15.40
2020,06,01,10,21,15.40
2020,06,01,10,22,15.50
2020,06,01,10,23,15.50
2020,06,01,10,24,15.60
2020,06,01,10,25,15.50
2020,06,01,10,26,15.40
2020,06,01,10,27,15.30
2020,06,01,10,28,15.30
2020,06,01,10,29,15.30
2020,06,01,10,30,15.30
2020,06,01,10,31,15.20
2020,06,01,10,32,15.10
2020,06,01,10,33,15.10
2020,06,01,10,34,15.10
2020,06,01,10,35,15.00
2020,06,01,10,36,15.00
2020,06,01,10,37,15.10
2020,06,01,10,38,15.10
2020,06,01,10,39,15.10
2020,06,01,10,40,15.20
2020,06,01,10,41,15.20
2020,06,01,10,42,15.30
2020,06,01,10,43,15.30
2020,06,01,10,44,15.50
2020,06,01,10,45,15.60
2020,06,01,10,46,15.80
2020,06,01,10,47,15.90
2020,06,01,10,48,16.00
2020,06,01,10,49,15.90
2020,06,01,10,50,15.80
2020,06,01,10,51,15.80
2020,06,01,10,52,15.70
2020,06,01,10,53,15.70
2020,06,01,10,54,15.70
2020,06,01,10,55,15.80
2020,06,01,10,56,15.80
2020,06,01,10,57,15.80
2020,06,01,10,58,15.70
2020,06,01,10,59,15.80
2020,06,01,11,00,15.80
2020,06,01,11,01,15.80
2020,06,01,11,02,15.90
2020,06,01,11,03,16.00
2020,06,01,11,04,16.10
2020,06,01,11,05,16.20
2020,06,01,11,06,16.30
2020,06,01,11,07,16.20
2020,06,01,11,08,16.10
2020,06,01,11,09,16.10
2020,06,01,11,10,16.20
2020,06,01,11,11,16.20
2020,06,01,11,12,16.10
2020,06,01,11,13,16.10
2020,06,01,11,14,16.20
2020,06,01,11,15,16.10
2020,06,01,11,16,16.20
2020,06,01,11,17,16.20
2020,06,01,11,18,16.30
2020,06,01,11,19,16.40
2020,06,01,11,20,16.40
2020,06,01,11,21,16.40
2020,06,01,11,22,16.40
2020,06,01,11,23,16.50
2020,06,01,11,24,16.60
2020,06,01,11,25,16.60
2020,06,01,11,26,16.50
2020,06,01,11,27,16.30
2020,06,01,11,28,16.30
2020,06,01,11,29,16.30
2020,06,01,11,30,16.20
2020,06,01,11,31,16.10
2020,06,01,11,32,16.00
2020,06,01,11,33,15.80
2020,06,01,11,34,15.70
2020,06,01,11,35,15.70
2020,06,01,11,36,15.60
2020,06,01,11,37,15.50
2020,06,01,11,38,15.60
2020,06,01,11,39,15.60
2020,06,01,11,40,15.70
2020,06,01,11,41,15.70
2020,06,01,11,42,15.80
2020,06,01,11,43,15.80
2020,06,01,11,44,15.90
2020,06,01,11,45,16.00
2020,06,01,11,46,16.20
2020,06,01,11,47,16.30
2020,06,01,11,48,16.50
2020,06,01,11,49,16.50
2020,06,01,11,50,16.40
2020,06,01,11,51,16.50
2020,06,01,11,52,16.50
2020,06,01,11,53,16.70
2020,06,01,11,54,16.60
2020,06,01,11,55,16.50
2020,06,01,11,56,16.40
2020,06,01,11,57,16.20
2020,06,01,11,58,16.20
2020,06,01,11,59,16.10
2020,06,01,12,00,16.00
2020,06,01,12,01,15.90
2020,06,01,12,02,15.80
2020,06,01,12,03,15.80
2020,06,01,12,04,15.70
2020,06,01,12,05,15.60
2020,06,01,12,06,15.70
2020,06,01,12,07,15.70
2020,06,01,12,08,15.70
2020,06,01,12,09,15.80
2020,06,01,12,10,15.90
2020,06,01,12,11,16.00
2020,06,01,12,12,16.10
2020,06,01,12,13,16.10
2020,06,01,12,14,16.20
2020,06,01,12,15,16.20
2020,06,01,12,16,16.20
2020,06,01,12,17,16.20
2020,06,01,12,18,16.20
2020,06,01,12,19,16.20
2020,06,01,12,20,16.20
2020,06,01,12,21,16.30
2020,06,01,12,22,16.50
2020,06,01,12,23,16.60
2020,06,01,12,24,16.70
2020,06,01,12,25,16.70
2020,06,01,12,26,16.70
2020,06,01,12,27,16.80
2020,06,01,12,28,16.80
2020,06,01,12,29,16.90
2020,06,01,12,30,17.00
2020,06,01,12,31,17.00
2020,06,01,12,32,17.00
2020,06,01,12,33,17.00
2020,06,01,12,34,17.10
2020,06,01,12,35,17.00
2020,06,01,12,36,16.80
2020,06,01,12,37,16.70
2020,06,01,12,38,16.60
2020,06,01,12,39,16.40
2020,06,01,12,40,16.30
2020,06,01,12,41,16.10
2020,06,01,12,42,16.00
2020,06,01,12,43,15.90
2020,06,01,12,44,15.90
2020,06,01,12,45,15.90
2020,06,01,12,46,16.00
2020,06,01,12,47,16.10
2020,06,01,12,48,16.20
2020,06,01,12,49,16.20
2020,06,01,12,50,16.20
2020,06,01,12,51,16.20
2020,06,01,12,52,16.20
2020,06,01,12,53,16.10
2020,06,01,12,54,16.10
2020,06,01,12,55,16.10
2020,06,01,12,56,16.10
2020,06,01,12,57,16.10
2020,06,01,12,58,16.00
2020,06,01,12,59,16.00
2020,06,01,13,00,15.90
2020,06,01,13,01,15.90
2020,06,01,13,02,15.90
2020,06,01,13,03,15.90
2020,06,01,13,04,15.80
2020,06,01,13,05,15.80
2020,06,01,13,06,15.80
2020,06,01,13,07,15.70
2020,06,01,13,08,15.70
2020,06,01,13,09,15.70
2020,06,01,13,10,15.60
2020,06,01,13,11,15.60
2020,06,01,13,12,15.50
2020,06,01,13,13,15.60
2020,06,01,13,14,15.60
2020,06,01,13,15,15.60
2020,06,01,13,16,15.70
2020,06,01,13,17,15.70
2020,06,01,13,18,15.70
2020,06,01,13,19,15.60
2020,06,01,13,20,15.50
2020,06,01,13,21,15.40
2020,06,01,13,22,15.40
2020,06,01,13,23,15.50
2020,06,01,13,24,15.40
2020,06,01,13,25,15.40
2020,06,01,13,26,15.40
2020,06,01,13,27,15.40
2020,06,01,13,28,15.50
2020,06,01,13,29,15.50
2020,06,01,13,30,15.50
2020,06,01,13,31,15.50
2020,06,01,13,32,15.60
2020,06,01,13,33,15.90
2020,06,01,13,34,16.00
2020,06,01,13,35,16.10
2020,06,01,13,36,16.20
2020,06,01,13,37,16.20
2020,06,01,13,38,16.10
2020,06,01,13,39,16.10
2020,06,01,13,40,16.10
2020,06,01,13,41,16.10
2020,06,01,13,42,16.00
2020,06,01,13,43,16.00
2020,06,01,13,44,16.10
2020,06,01,13,45,16.20
2020,06,01,13,46,16.20
2020,06,01,13,47,16.40
2020,06,01,13,48,16.60
2020,06,01,13,49,16.60
2020,06,01,13,50,16.60
2020,06,01,13,51,16.70
2020,06,01,13,52,16.70
2020,06,01,13,53,16.70
2020,06,01,13,54,16.70
2020,06,01,13,55,16.70
2020,06,01,13,56,16.70
2020,06,01,13,57,16.70
2020,06,01,13,58,16.60
2020,06,01,13,59,16.60
2020,06,01,14,00,16.60
2020,06,01,14,01,16.70
2020,06,01,14,02,16.80
2020,06,01,14,03,16.80
2020,06,01,14,04,16.90
2020,06,01,14,05,16.90
2020,06,01,14,06,17.00
2020,06,01,14,07,17.10
2020,06,01,14,08,17.10
2020,06,01,14,09,17.10
2020,06,01,14,10,17.20
2020,06,01,14,11,17.20
2020,06,01,14,12,17.30
2020,06,01,14,13,17.40
2020,06,01,14,14,17.40
2020,06,01,14,15,17.30
2020,06,01,14,16,17.30
2020,06,01,14,17,17.20
2020,06,01,14,18,17.10
2020,06,01,14,19,17.10
2020,06,01,14,20,17.20
2020,06,01,14,21,17.30
2020,06,01,14,22,17.40
2020,06,01,14,23,17.50
2020,06,01,14,24,17.50
2020,06,01,14,25,17.50
2020,06,01,14,26,17.50
2020,06,01,14,27,17.40
2020,06,01,14,28,17.50
2020,06,01,14,29,17.60
2020,06,01,14,30,17.70
2020,06,01,14,31,17.70
2020,06,01,14,32,17.70
2020,06,01,14,33,17.70
2020,06,01,14,34,17.60
2020,06,01,14,35,17.60
2020,06,01,14,36,17.50
2020,06,01,14,37,17.40
2020,06,01,14,38,17.50
2020,06,01,14,39,17.50
2020,06,01,14,40,17.60
2020,06,01,14,41,17.60
2020,06,01,14,42,17.50
2020,06,01,14,43,17.40
2020,06,01,14,44,17.40
2020,06,01,14,45,17.30
2020,06,01,14,46,17.30
2020,06,01,14,47,17.30
2020,06,01,14,48,17.50
2020,06,01,14,49,17.60
2020,06,01,14,50,17.60
2020,06,01,14,51,17.60
2020,06,01,14,52,17.60
2020,06,01,14,53,17.50
2020,06,01,14,54,17.60
2020,06,01,14,55,17.60
2020,06,01,14,56,17.60
2020,06,01,14,57,17.50
2020,06,01,14,58,17.40
2020,06,01,14,59,17.30
2020,06,01,15,00,17.20
2020,06,01,15,01,17.20
2020,06,01,15,02,17.30
2020,06,01,15,03,17.50
2020,06,01,15,04,17.60
2020,06,01,15,05,17.60
2020,06,01,15,06,17.60
2020,06,01,15,07,17.70
2020,06,01,15,08,17.70
2020,06,01,15,09,17.90
2020,06,01,15,10,17.90
2020,06,01,15,11,17.90
2020,06,01,15,12,17.90
2020,06,01,15,13,17.90
2020,06,01,15,14,17.90
2020,06,01,15,15,17.90
2020,06,01,15,16,18.00
2020,06,01,15,17,18.10
2020,06,01,15,18,18.10
2020,06,01,15,19,18.10
2020,06,01,15,20,18.20
2020,06,01,15,21,18.30
2020,06,01,15,22,18.30
2020,06,01,15,23,18.30
2020,06,01,15,24,18.40
2020,06,01,15,25,18.50
2020,06,01,15,26,18.50
2020,06,01,15,27,18.50
2020,06,01,15,28,18.60
2020,06,01,15,29,18.50
2020,06,01,15,30,18.50
2020,06,01,15,31,18.50
2020,06,01,15,32,18.50
2020,06,01,15,33,18.40
2020,06,01,15,34,18.40
2020,06,01,15,35,18.40
2020,06,01,15,36,18.40
2020,06,01,15,37,18.50
2020,06,01,15,38,18.60
2020,06,01,15,39,18.60
2020,06,01,15,40,18.70
2020,06,01,15,41,18.70
2020,06,01,15,42,18.70
2020,06,01,15,43,18.70
2020,06,01,15,44,18.70
2020,06,01,15,45,18.70
2020,06,01,15,46,18.80
2020,06,01,15,47,18.80
2020,06,01,15,48,18.80
2020,06,01,15,49,18.80
2020,06,01,15,50,18.80
2020,06,01,15,51,18.80
2020,06,01,15,52,18.80
2020,06,01,15,53,18.90
2020,06,01,15,54,18.90
2020,06,01,15,55,18.90
2020,06,01,15,56,18.80
2020,06,01,15,57,18.80
2020,06,01,15,58,18.70
2020,06,01,15,59,18.70
2020,06,01,16,00,18.80
2020,06,01,16,01,18.70
2020,06,01,16,02,18.70
2020,06,01,16,03,18.70
2020,06,01,16,04,18.70
2020,06,01,16,05,18.70
2020,06,01,16,06,18.80
2020,06,01,16,07,18.70
2020,06,01,16,08,18.70
2020,06,01,16,09,18.80
2020,06,01,16,10,18.80
2020,06,01,16,11,18.80
2020,06,01,16,12,18.80
2020,06,01,16,13,18.80
2020,06,01,16,14,18.90
2020,06,01,16,15,19.10
2020,06,01,16,16,19.00
2020,06,01,16,17,18.90
2020,06,01,16,18,18.80
2020,06,01,16,19,18.80
2020,06,01,16,20,18.70
2020,06,01,16,21,18.70
2020,06,01,16,22,18.70
2020,06,01,16,23,18.80
2020,06,01,16,24,18.80
2020,06,01,16,25,18.80
2020,06,01,16,26,18.90
2020,06,01,16,27,18.80
2020,06,01,16,28,18.80
2020,06,01,16,29,18.60
2020,06,01,16,30,18.50
2020,06,01,16,31,18.40
2020,06,01,16,32,18.40
2020,06,01,16,33,18.40
2020,06,01,16,34,18.50
2020,06,01,16,35,18.50
2020,06,01,16,36,18.40
2020,06,01,16,37,18.40
2020,06,01,16,38,18.30
2020,06,01,16,39,18.40
2020,06,01,16,40,18.40
2020,06,01,16,41,18.40
2020,06,01,16,42,18.50
2020,06,01,16,43,18.60
2020,06,01,16,44,18.70
2020,06,01,16,45,18.60
2020,06,01,16,46,18.60
2020,06,01,16,47,18.60
2020,06,01,16,48,18.70
2020,06,01,16,49,18.80
2020,06,01,16,50,18.90
2020,06,01,16,51,18.90
2020,06,01,16,52,18.90
2020,06,01,16,53,18.90
2020,06,01,16,54,18.80
2020,06,01,16,55,18.90
2020,06,01,16,56,18.90
2020,06,01,16,57,18.80
2020,06,01,16,58,18.90
2020,06,01,16,59,18.80
2020,06,01,17,00,18.80
2020,06,01,17,01,18.70
2020,06,01,17,02,18.80
2020,06,01,17,03,18.80
2020,06,01,17,04,18.80
2020,06,01,17,05,18.80
2020,06,01,17,06,18.80
2020,06,01,17,07,18.80
2020,06,01,17,08,18.70
2020,06,01,17,09,18.80
2020,06,01,17,10,18.70
2020,06,01,17,11,18.70
2020,06,01,17,12,18.70
2020,06,01,17,13,18.70
2020,06,01,17,14,18.80
2020,06,01,17,15,18.80
2020,06,01,17,16,18.90
2020,06,01,17,17,18.90
2020,06,01,17,18,19.00
2020,06,01,17,19,19.00
2020,06,01,17,20,19.00
2020,06,01,17,21,19.00
2020,06,01,17,22,19.10
2020,06,01,17,23,19.10
2020,06,01,17,24,19.10
2020,06,01,17,25,19.10
2020,06,01,17,26,19.00
2020,06,01,17,27,18.90
2020,06,01,17,28,18.90
2020,06,01,17,29,18.90
2020,06,01,17,30,18.80
2020,06,01,17,31,18.80
2020,06,01,17,32,18.70
2020,06,01,17,33,18.70
2020,06,01,17,34,18.80
2020,06,01,17,35,18.80
2020,06,01,17,36,18.80
2020,06,01,17,37,18.90
2020,06,01,17,38,19.00